STARLINK-11229 [DTC] (60908 NORAD) Tracking and Keplerian Element Data

This shows tracking and keplerian element data for the satellite.

Feedback or suggestion? Click here.




ElementValue
Catalog60908
NameSTARLINK-11229 [DTC]
Epoch Orbit795
Epoch Day286.82345254
Epoch Year2024
RAAN140.1876
Inclination53.1594
Eccentricity0.0001458
Argument of Perigee90.7604
Mean Anonmoly269.3584
Mean Motion15.7674081
Decay Rate0.00010437
L11 60908U 24154F 24286.82345254 .00010437 00000+0 67651-4 0 9997
L22 60908 53.1594 140.1876 0001458 90.7604 269.3584 15.76740810 7950



Live tracking and technical data element details for STARLINK-11229 [DTC] (NORAD 60908). STARLINK-11229 [DTC] can be tracked NOW for your location showing map with azimuth and elevation plus other details from your city location.







IsCatalogInMostPopularTable: catalog: 60908, numindb: 8
Update: records affected: 1



GetName: 60908 STARLINK-11229 [DTC]

Hit Count: updated at: Wed, 04 Dec 2024 17:42:20 GMT